User: anonymous   Login
Location: *
(50.2903°S, 172.5375°W)
Time: 23:28:53
(UTC+00:00)
Language:

SL-14 R/B - Orbit

View from above orbital plane
View from above orbital plane
View from above satellite
View from above satellite

Ground track
Ground track

The orbit data is extracted from the following two-line orbital elements,

1 33505U 09003B   20028.51064923 -.00000079 +00000-0 -67824-5 0  9990
2 33505 082.3830 011.7989 0026680 134.4369 225.9050 15.09837445604941
Epoch (UTC): 28 January 2020 12:15:20
Eccentricity: 0.0026680
inclination: 82.3830°
perigee height: 518 km
apogee height: 555 km
right ascension of ascending node: 11.7989°
argument of perigee: 134.4369°
revolutions per day: 15.09837445
mean anomaly at epoch: 225.9050°
orbit number at epoch: 60494

The dashed part of the orbit path shows where the satellite is in the earth's shadow,  

DLR